Year,Month,Day,Hour,Minute,Value (Times are PST for temperature in C)
2014,06,17,00,00,14.90
2014,06,17,00,01,14.90
2014,06,17,00,02,14.90
2014,06,17,00,03,14.80
2014,06,17,00,04,14.80
2014,06,17,00,05,14.80
2014,06,17,00,06,14.80
2014,06,17,00,07,14.80
2014,06,17,00,08,14.80
2014,06,17,00,09,14.80
2014,06,17,00,10,14.70
2014,06,17,00,11,14.70
2014,06,17,00,12,14.70
2014,06,17,00,13,14.70
2014,06,17,00,14,14.70
2014,06,17,00,15,14.70
2014,06,17,00,16,14.70
2014,06,17,00,17,14.70
2014,06,17,00,18,14.70
2014,06,17,00,19,14.70
2014,06,17,00,20,14.70
2014,06,17,00,21,14.70
2014,06,17,00,22,14.60
2014,06,17,00,23,14.60
2014,06,17,00,24,14.60
2014,06,17,00,25,14.60
2014,06,17,00,26,14.60
2014,06,17,00,27,14.60
2014,06,17,00,28,14.50
2014,06,17,00,29,14.50
2014,06,17,00,30,14.50
2014,06,17,00,31,14.50
2014,06,17,00,32,14.40
2014,06,17,00,33,14.40
2014,06,17,00,34,14.40
2014,06,17,00,35,14.40
2014,06,17,00,36,14.40
2014,06,17,00,37,14.30
2014,06,17,00,38,14.30
2014,06,17,00,39,14.30
2014,06,17,00,40,14.30
2014,06,17,00,41,14.30
2014,06,17,00,42,14.30
2014,06,17,00,43,14.30
2014,06,17,00,44,14.30
2014,06,17,00,45,14.20
2014,06,17,00,46,14.20
2014,06,17,00,47,14.20
2014,06,17,00,48,14.20
2014,06,17,00,49,14.20
2014,06,17,00,50,14.20
2014,06,17,00,51,14.10
2014,06,17,00,52,14.10
2014,06,17,00,53,14.10
2014,06,17,00,54,14.10
2014,06,17,00,55,14.10
2014,06,17,00,56,14.10
2014,06,17,00,57,14.10
2014,06,17,00,58,14.10
2014,06,17,00,59,14.10
2014,06,17,01,00,14.00
2014,06,17,01,01,14.00
2014,06,17,01,02,14.00
2014,06,17,01,03,13.90
2014,06,17,01,04,13.90
2014,06,17,01,05,13.90
2014,06,17,01,06,13.90
2014,06,17,01,07,13.90
2014,06,17,01,08,13.80
2014,06,17,01,09,13.80
2014,06,17,01,10,13.80
2014,06,17,01,11,13.80
2014,06,17,01,12,13.80
2014,06,17,01,13,13.70
2014,06,17,01,14,13.70
2014,06,17,01,15,13.70
2014,06,17,01,16,13.70
2014,06,17,01,17,13.70
2014,06,17,01,18,13.70
2014,06,17,01,19,13.70
2014,06,17,01,20,13.70
2014,06,17,01,21,13.60
2014,06,17,01,22,13.60
2014,06,17,01,23,13.60
2014,06,17,01,24,13.60
2014,06,17,01,25,13.60
2014,06,17,01,26,13.50
2014,06,17,01,27,13.50
2014,06,17,01,28,13.50
2014,06,17,01,29,13.40
2014,06,17,01,30,13.40
2014,06,17,01,31,13.40
2014,06,17,01,32,13.40
2014,06,17,01,33,13.40
2014,06,17,01,34,13.40
2014,06,17,01,35,13.40
2014,06,17,01,36,13.40
2014,06,17,01,37,13.30
2014,06,17,01,38,13.40
2014,06,17,01,39,13.40
2014,06,17,01,40,13.40
2014,06,17,01,41,13.30
2014,06,17,01,42,13.30
2014,06,17,01,43,13.30
2014,06,17,01,44,13.30
2014,06,17,01,45,13.30
2014,06,17,01,46,13.30
2014,06,17,01,47,13.30
2014,06,17,01,48,13.30
2014,06,17,01,49,13.30
2014,06,17,01,50,13.30
2014,06,17,01,51,13.30
2014,06,17,01,52,13.20
2014,06,17,01,53,13.20
2014,06,17,01,54,13.20
2014,06,17,01,55,13.10
2014,06,17,01,56,13.10
2014,06,17,01,57,13.10
2014,06,17,01,58,13.10
2014,06,17,01,59,13.10
2014,06,17,02,00,13.10
2014,06,17,02,01,13.10
2014,06,17,02,02,13.10
2014,06,17,02,03,13.10
2014,06,17,02,04,13.10
2014,06,17,02,05,13.10
2014,06,17,02,06,13.20
2014,06,17,02,07,13.20
2014,06,17,02,08,13.20
2014,06,17,02,09,13.20
2014,06,17,02,10,13.10
2014,06,17,02,11,13.10
2014,06,17,02,12,13.10
2014,06,17,02,13,13.10
2014,06,17,02,14,13.10
2014,06,17,02,15,13.10
2014,06,17,02,16,13.10
2014,06,17,02,17,13.10
2014,06,17,02,18,13.10
2014,06,17,02,19,13.10
2014,06,17,02,20,13.10
2014,06,17,02,21,13.10
2014,06,17,02,22,13.00
2014,06,17,02,23,13.00
2014,06,17,02,24,13.00
2014,06,17,02,25,13.00
2014,06,17,02,26,13.00
2014,06,17,02,27,13.00
2014,06,17,02,28,12.90
2014,06,17,02,29,12.90
2014,06,17,02,30,12.90
2014,06,17,02,31,12.90
2014,06,17,02,32,12.90
2014,06,17,02,33,12.90
2014,06,17,02,34,12.90
2014,06,17,02,35,12.90
2014,06,17,02,36,12.90
2014,06,17,02,37,12.90
2014,06,17,02,38,12.80
2014,06,17,02,39,12.80
2014,06,17,02,40,12.80
2014,06,17,02,41,12.80
2014,06,17,02,42,12.80
2014,06,17,02,43,12.80
2014,06,17,02,44,12.70
2014,06,17,02,45,12.70
2014,06,17,02,46,12.70
2014,06,17,02,47,12.70
2014,06,17,02,48,12.70
2014,06,17,02,49,12.70
2014,06,17,02,50,12.70
2014,06,17,02,51,12.70
2014,06,17,02,52,12.60
2014,06,17,02,53,12.60
2014,06,17,02,54,12.60
2014,06,17,02,55,12.60
2014,06,17,02,56,12.60
2014,06,17,02,57,12.50
2014,06,17,02,58,12.50
2014,06,17,02,59,12.50
2014,06,17,03,00,12.50
2014,06,17,03,01,12.50
2014,06,17,03,02,12.40
2014,06,17,03,03,12.40
2014,06,17,03,04,12.40
2014,06,17,03,05,12.40
2014,06,17,03,06,12.40
2014,06,17,03,07,12.40
2014,06,17,03,08,12.40
2014,06,17,03,09,12.30
2014,06,17,03,10,12.30
2014,06,17,03,11,12.30
2014,06,17,03,12,12.30
2014,06,17,03,13,12.40
2014,06,17,03,14,12.40
2014,06,17,03,15,12.30
2014,06,17,03,16,12.30
2014,06,17,03,17,12.30
2014,06,17,03,18,12.20
2014,06,17,03,19,12.20
2014,06,17,03,20,12.10
2014,06,17,03,21,12.10
2014,06,17,03,22,12.10
2014,06,17,03,23,12.00
2014,06,17,03,24,12.00
2014,06,17,03,25,12.00
2014,06,17,03,26,11.90
2014,06,17,03,27,11.90
2014,06,17,03,28,11.90
2014,06,17,03,29,11.90
2014,06,17,03,30,12.00
2014,06,17,03,31,12.00
2014,06,17,03,32,12.00
2014,06,17,03,33,12.00
2014,06,17,03,34,12.00
2014,06,17,03,35,12.00
2014,06,17,03,36,12.00
2014,06,17,03,37,11.90
2014,06,17,03,38,11.90
2014,06,17,03,39,11.90
2014,06,17,03,40,11.90
2014,06,17,03,41,11.90
2014,06,17,03,42,11.90
2014,06,17,03,43,11.90
2014,06,17,03,44,11.80
2014,06,17,03,45,11.80
2014,06,17,03,46,11.80
2014,06,17,03,47,11.80
2014,06,17,03,48,11.70
2014,06,17,03,49,11.70
2014,06,17,03,50,11.70
2014,06,17,03,51,11.70
2014,06,17,03,52,11.70
2014,06,17,03,53,11.60
2014,06,17,03,54,11.60
2014,06,17,03,55,11.60
2014,06,17,03,56,11.50
2014,06,17,03,57,11.50
2014,06,17,03,58,11.50
2014,06,17,03,59,11.40
2014,06,17,04,00,11.40
2014,06,17,04,01,11.30
2014,06,17,04,02,11.30
2014,06,17,04,03,11.30
2014,06,17,04,04,11.20
2014,06,17,04,05,11.20
2014,06,17,04,06,11.20
2014,06,17,04,07,11.20
2014,06,17,04,08,11.20
2014,06,17,04,09,11.20
2014,06,17,04,10,11.20
2014,06,17,04,11,11.20
2014,06,17,04,12,11.20
2014,06,17,04,13,11.20
2014,06,17,04,14,11.20
2014,06,17,04,15,11.20
2014,06,17,04,16,11.20
2014,06,17,04,17,11.20
2014,06,17,04,18,11.20
2014,06,17,04,19,11.20
2014,06,17,04,20,11.30
2014,06,17,04,21,11.30
2014,06,17,04,22,11.40
2014,06,17,04,23,11.40
2014,06,17,04,24,11.50
2014,06,17,04,25,11.60
2014,06,17,04,26,11.60
2014,06,17,04,27,11.60
2014,06,17,04,28,11.70
2014,06,17,04,29,11.70
2014,06,17,04,30,11.70
2014,06,17,04,31,11.70
2014,06,17,04,32,11.80
2014,06,17,04,33,11.80
2014,06,17,04,34,11.80
2014,06,17,04,35,11.80
2014,06,17,04,36,11.80
2014,06,17,04,37,11.80
2014,06,17,04,38,11.80
2014,06,17,04,39,11.80
2014,06,17,04,40,11.80
2014,06,17,04,41,11.80
2014,06,17,04,42,11.80
2014,06,17,04,43,11.80
2014,06,17,04,44,11.80
2014,06,17,04,45,11.80
2014,06,17,04,46,11.80
2014,06,17,04,47,11.80
2014,06,17,04,48,11.70
2014,06,17,04,49,11.70
2014,06,17,04,50,11.70
2014,06,17,04,51,11.60
2014,06,17,04,52,11.50
2014,06,17,04,53,11.50
2014,06,17,04,54,11.40
2014,06,17,04,55,11.40
2014,06,17,04,56,11.30
2014,06,17,04,57,11.30
2014,06,17,04,58,11.20
2014,06,17,04,59,11.20
2014,06,17,05,00,11.20
2014,06,17,05,01,11.20
2014,06,17,05,02,11.20
2014,06,17,05,03,11.20
2014,06,17,05,04,11.10
2014,06,17,05,05,11.10
2014,06,17,05,06,11.00
2014,06,17,05,07,11.00
2014,06,17,05,08,10.90
2014,06,17,05,09,10.90
2014,06,17,05,10,10.90
2014,06,17,05,11,10.90
2014,06,17,05,12,10.80
2014,06,17,05,13,10.80
2014,06,17,05,14,10.80
2014,06,17,05,15,10.80
2014,06,17,05,16,10.70
2014,06,17,05,17,10.70
2014,06,17,05,18,10.70
2014,06,17,05,19,10.70
2014,06,17,05,20,10.70
2014,06,17,05,21,10.70
2014,06,17,05,22,10.70
2014,06,17,05,23,10.60
2014,06,17,05,24,10.60
2014,06,17,05,25,10.60
2014,06,17,05,26,10.60
2014,06,17,05,27,10.60
2014,06,17,05,28,10.60
2014,06,17,05,29,10.60
2014,06,17,05,30,10.60
2014,06,17,05,31,10.60
2014,06,17,05,32,10.60
2014,06,17,05,33,10.60
2014,06,17,05,34,10.60
2014,06,17,05,35,10.60
2014,06,17,05,36,10.70
2014,06,17,05,37,10.70
2014,06,17,05,38,10.70
2014,06,17,05,39,10.70
2014,06,17,05,40,10.70
2014,06,17,05,41,10.70
2014,06,17,05,42,10.80
2014,06,17,05,43,10.80
2014,06,17,05,44,10.80
2014,06,17,05,45,10.90
2014,06,17,05,46,10.90
2014,06,17,05,47,10.90
2014,06,17,05,48,11.00
2014,06,17,05,49,11.00
2014,06,17,05,50,11.10
2014,06,17,05,51,11.10
2014,06,17,05,52,11.10
2014,06,17,05,53,11.10
2014,06,17,05,54,11.10
2014,06,17,05,55,11.10
2014,06,17,05,56,11.10
2014,06,17,05,57,11.10
2014,06,17,05,58,11.10
2014,06,17,05,59,11.10
2014,06,17,06,00,11.10
2014,06,17,06,01,11.20
2014,06,17,06,02,11.20
2014,06,17,06,03,11.20
2014,06,17,06,04,11.20
2014,06,17,06,05,11.20
2014,06,17,06,06,11.30
2014,06,17,06,07,11.30
2014,06,17,06,08,11.30
2014,06,17,06,09,11.30
2014,06,17,06,10,11.40
2014,06,17,06,11,11.40
2014,06,17,06,12,11.40
2014,06,17,06,13,11.40
2014,06,17,06,14,11.50
2014,06,17,06,15,11.60
2014,06,17,06,16,11.60
2014,06,17,06,17,11.60
2014,06,17,06,18,11.60
2014,06,17,06,19,11.70
2014,06,17,06,20,11.70
2014,06,17,06,21,11.70
2014,06,17,06,22,11.80
2014,06,17,06,23,11.80
2014,06,17,06,24,11.80
2014,06,17,06,25,11.90
2014,06,17,06,26,11.90
2014,06,17,06,27,11.90
2014,06,17,06,28,12.00
2014,06,17,06,29,12.00
2014,06,17,06,30,12.00
2014,06,17,06,31,12.10
2014,06,17,06,32,12.10
2014,06,17,06,33,12.10
2014,06,17,06,34,12.20
2014,06,17,06,35,12.20
2014,06,17,06,36,12.20
2014,06,17,06,37,12.20
2014,06,17,06,38,12.30
2014,06,17,06,39,12.30
2014,06,17,06,40,12.30
2014,06,17,06,41,12.30
2014,06,17,06,42,12.40
2014,06,17,06,43,12.40
2014,06,17,06,44,12.40
2014,06,17,06,45,12.50
2014,06,17,06,46,12.50
2014,06,17,06,47,12.50
2014,06,17,06,48,12.60
2014,06,17,06,49,12.60
2014,06,17,06,50,12.60
2014,06,17,06,51,12.70
2014,06,17,06,52,12.70
2014,06,17,06,53,12.70
2014,06,17,06,54,12.70
2014,06,17,06,55,12.70
2014,06,17,06,56,12.70
2014,06,17,06,57,12.80
2014,06,17,06,58,12.80
2014,06,17,06,59,12.80
2014,06,17,07,00,12.80
2014,06,17,07,01,12.80
2014,06,17,07,02,12.80
2014,06,17,07,03,12.90
2014,06,17,07,04,12.90
2014,06,17,07,05,12.90
2014,06,17,07,06,13.00
2014,06,17,07,07,13.00
2014,06,17,07,08,13.00
2014,06,17,07,09,13.00
2014,06,17,07,10,13.10
2014,06,17,07,11,13.10
2014,06,17,07,12,13.10
2014,06,17,07,13,13.20
2014,06,17,07,14,13.20
2014,06,17,07,15,13.20
2014,06,17,07,16,13.20
2014,06,17,07,17,13.30
2014,06,17,07,18,13.30
2014,06,17,07,19,13.30
2014,06,17,07,20,13.30
2014,06,17,07,21,13.30
2014,06,17,07,22,13.30
2014,06,17,07,23,13.30
2014,06,17,07,24,13.40
2014,06,17,07,25,13.40
2014,06,17,07,26,13.40
2014,06,17,07,27,13.50
2014,06,17,07,28,13.50
2014,06,17,07,29,13.60
2014,06,17,07,30,13.60
2014,06,17,07,31,13.70
2014,06,17,07,32,13.80
2014,06,17,07,33,13.80
2014,06,17,07,34,13.80
2014,06,17,07,35,13.80
2014,06,17,07,36,13.80
2014,06,17,07,37,13.80
2014,06,17,07,38,13.80
2014,06,17,07,39,13.80
2014,06,17,07,40,13.80
2014,06,17,07,41,13.90
2014,06,17,07,42,13.90
2014,06,17,07,43,14.00
2014,06,17,07,44,14.00
2014,06,17,07,45,14.10
2014,06,17,07,46,14.10
2014,06,17,07,47,14.10
2014,06,17,07,48,14.00
2014,06,17,07,49,14.00
2014,06,17,07,50,14.00
2014,06,17,07,51,14.00
2014,06,17,07,52,14.10
2014,06,17,07,53,14.10
2014,06,17,07,54,14.10
2014,06,17,07,55,14.20
2014,06,17,07,56,14.20
2014,06,17,07,57,14.20
2014,06,17,07,58,14.20
2014,06,17,07,59,14.20
2014,06,17,08,00,14.30
2014,06,17,08,01,14.30
2014,06,17,08,02,14.30
2014,06,17,08,03,14.40
2014,06,17,08,04,14.50
2014,06,17,08,05,14.50
2014,06,17,08,06,14.50
2014,06,17,08,07,14.50
2014,06,17,08,08,14.50
2014,06,17,08,09,14.50
2014,06,17,08,10,14.40
2014,06,17,08,11,14.50
2014,06,17,08,12,14.50
2014,06,17,08,13,14.60
2014,06,17,08,14,14.60
2014,06,17,08,15,14.60
2014,06,17,08,16,14.60
2014,06,17,08,17,14.60
2014,06,17,08,18,14.60
2014,06,17,08,19,14.60
2014,06,17,08,20,14.70
2014,06,17,08,21,14.80
2014,06,17,08,22,14.80
2014,06,17,08,23,14.80
2014,06,17,08,24,14.80
2014,06,17,08,25,14.80
2014,06,17,08,26,14.80
2014,06,17,08,27,14.70
2014,06,17,08,28,14.60
2014,06,17,08,29,14.50
2014,06,17,08,30,14.50
2014,06,17,08,31,14.40
2014,06,17,08,32,14.40
2014,06,17,08,33,14.40
2014,06,17,08,34,14.30
2014,06,17,08,35,14.30
2014,06,17,08,36,14.30
2014,06,17,08,37,14.40
2014,06,17,08,38,14.40
2014,06,17,08,39,14.40
2014,06,17,08,40,14.30
2014,06,17,08,41,14.30
2014,06,17,08,42,14.30
2014,06,17,08,43,14.30
2014,06,17,08,44,14.40
2014,06,17,08,45,14.50
2014,06,17,08,46,14.50
2014,06,17,08,47,14.60
2014,06,17,08,48,14.60
2014,06,17,08,49,14.60
2014,06,17,08,50,14.60
2014,06,17,08,51,14.60
2014,06,17,08,52,14.60
2014,06,17,08,53,14.60
2014,06,17,08,54,14.70
2014,06,17,08,55,14.70
2014,06,17,08,56,14.70
2014,06,17,08,57,14.70
2014,06,17,08,58,14.60
2014,06,17,08,59,14.60
2014,06,17,09,00,14.60
2014,06,17,09,01,14.60
2014,06,17,09,02,14.50
2014,06,17,09,03,14.50
2014,06,17,09,04,14.40
2014,06,17,09,05,14.40
2014,06,17,09,06,14.50
2014,06,17,09,07,14.50
2014,06,17,09,08,14.50
2014,06,17,09,09,14.50
2014,06,17,09,10,14.60
2014,06,17,09,11,14.60
2014,06,17,09,12,14.60
2014,06,17,09,13,14.70
2014,06,17,09,14,14.70
2014,06,17,09,15,14.70
2014,06,17,09,16,14.70
2014,06,17,09,17,14.70
2014,06,17,09,18,14.80
2014,06,17,09,19,14.80
2014,06,17,09,20,14.80
2014,06,17,09,21,14.90
2014,06,17,09,22,14.90
2014,06,17,09,23,14.90
2014,06,17,09,24,14.90
2014,06,17,09,25,14.80
2014,06,17,09,26,14.80
2014,06,17,09,27,14.80
2014,06,17,09,28,14.80
2014,06,17,09,29,14.80
2014,06,17,09,30,14.80
2014,06,17,09,31,14.80
2014,06,17,09,32,14.90
2014,06,17,09,33,15.00
2014,06,17,09,34,15.10
2014,06,17,09,35,15.10
2014,06,17,09,36,15.20
2014,06,17,09,37,15.30
2014,06,17,09,38,15.30
2014,06,17,09,39,15.30
2014,06,17,09,40,15.40
2014,06,17,09,41,15.40
2014,06,17,09,42,15.40
2014,06,17,09,43,15.50
2014,06,17,09,44,15.50
2014,06,17,09,45,15.60
2014,06,17,09,46,15.60
2014,06,17,09,47,15.60
2014,06,17,09,48,15.60
2014,06,17,09,49,15.50
2014,06,17,09,50,15.50
2014,06,17,09,51,15.40
2014,06,17,09,52,15.30
2014,06,17,09,53,15.30
2014,06,17,09,54,15.30
2014,06,17,09,55,15.20
2014,06,17,09,56,15.20
2014,06,17,09,57,15.20
2014,06,17,09,58,15.10
2014,06,17,09,59,15.10
2014,06,17,10,00,15.10
2014,06,17,10,01,15.10
2014,06,17,10,02,15.20
2014,06,17,10,03,15.30
2014,06,17,10,04,15.40
2014,06,17,10,05,15.50
2014,06,17,10,06,15.60
2014,06,17,10,07,15.60
2014,06,17,10,08,15.60
2014,06,17,10,09,15.60
2014,06,17,10,10,15.60
2014,06,17,10,11,15.70
2014,06,17,10,12,15.70
2014,06,17,10,13,15.70
2014,06,17,10,14,15.70
2014,06,17,10,15,15.80
2014,06,17,10,16,15.80
2014,06,17,10,17,15.80
2014,06,17,10,18,15.80
2014,06,17,10,19,15.80
2014,06,17,10,20,15.80
2014,06,17,10,21,15.80
2014,06,17,10,22,15.80
2014,06,17,10,23,15.80
2014,06,17,10,24,15.70
2014,06,17,10,25,15.70
2014,06,17,10,26,15.70
2014,06,17,10,27,15.70
2014,06,17,10,28,15.70
2014,06,17,10,29,15.70
2014,06,17,10,30,15.70
2014,06,17,10,31,15.80
2014,06,17,10,32,15.80
2014,06,17,10,33,15.90
2014,06,17,10,34,15.90
2014,06,17,10,35,16.00
2014,06,17,10,36,16.10
2014,06,17,10,37,16.20
2014,06,17,10,38,16.20
2014,06,17,10,39,16.30
2014,06,17,10,40,16.30
2014,06,17,10,41,16.30
2014,06,17,10,42,16.40
2014,06,17,10,43,16.40
2014,06,17,10,44,16.40
2014,06,17,10,45,16.50
2014,06,17,10,46,16.50
2014,06,17,10,47,16.60
2014,06,17,10,48,16.70
2014,06,17,10,49,16.70
2014,06,17,10,50,16.70
2014,06,17,10,51,16.80
2014,06,17,10,52,16.80
2014,06,17,10,53,16.80
2014,06,17,10,54,16.80
2014,06,17,10,55,16.70
2014,06,17,10,56,16.70
2014,06,17,10,57,16.70
2014,06,17,10,58,16.70
2014,06,17,10,59,16.70
2014,06,17,11,00,16.80
2014,06,17,11,01,16.80
2014,06,17,11,02,16.80
2014,06,17,11,03,16.80
2014,06,17,11,04,16.70
2014,06,17,11,05,16.70
2014,06,17,11,06,16.70
2014,06,17,11,07,16.60
2014,06,17,11,08,16.60
2014,06,17,11,09,16.60
2014,06,17,11,10,16.50
2014,06,17,11,11,16.40
2014,06,17,11,12,16.40
2014,06,17,11,13,16.40
2014,06,17,11,14,16.50
2014,06,17,11,15,16.60
2014,06,17,11,16,16.70
2014,06,17,11,17,16.80
2014,06,17,11,18,16.80
2014,06,17,11,19,16.80
2014,06,17,11,20,16.80
2014,06,17,11,21,16.90
2014,06,17,11,22,17.00
2014,06,17,11,23,17.10
2014,06,17,11,24,17.30
2014,06,17,11,25,17.40
2014,06,17,11,26,17.60
2014,06,17,11,27,17.70
2014,06,17,11,28,17.80
2014,06,17,11,29,17.90
2014,06,17,11,30,18.00
2014,06,17,11,31,18.10
2014,06,17,11,32,18.20
2014,06,17,11,33,18.30
2014,06,17,11,34,18.30
2014,06,17,11,35,18.30
2014,06,17,11,36,18.20
2014,06,17,11,37,18.10
2014,06,17,11,38,17.90
2014,06,17,11,39,17.80
2014,06,17,11,40,17.60
2014,06,17,11,41,17.40
2014,06,17,11,42,17.30
2014,06,17,11,43,17.20
2014,06,17,11,44,17.10
2014,06,17,11,45,17.00
2014,06,17,11,46,16.90
2014,06,17,11,47,16.80
2014,06,17,11,48,16.90
2014,06,17,11,49,17.00
2014,06,17,11,50,17.10
2014,06,17,11,51,17.20
2014,06,17,11,52,17.30
2014,06,17,11,53,17.40
2014,06,17,11,54,17.30
2014,06,17,11,55,17.30
2014,06,17,11,56,17.40
2014,06,17,11,57,17.40
2014,06,17,11,58,17.50
2014,06,17,11,59,17.50
2014,06,17,12,00,17.50
2014,06,17,12,01,17.50
2014,06,17,12,02,17.40
2014,06,17,12,03,17.40
2014,06,17,12,04,17.40
2014,06,17,12,05,17.40
2014,06,17,12,06,17.40
2014,06,17,12,07,17.30
2014,06,17,12,08,17.20
2014,06,17,12,09,17.10
2014,06,17,12,10,17.00
2014,06,17,12,11,16.90
2014,06,17,12,12,16.80
2014,06,17,12,13,16.80
2014,06,17,12,14,16.90
2014,06,17,12,15,17.10
2014,06,17,12,16,17.10
2014,06,17,12,17,17.10
2014,06,17,12,18,16.90
2014,06,17,12,19,16.80
2014,06,17,12,20,16.70
2014,06,17,12,21,16.70
2014,06,17,12,22,16.60
2014,06,17,12,23,16.70
2014,06,17,12,24,16.70
2014,06,17,12,25,16.70
2014,06,17,12,26,16.70
2014,06,17,12,27,16.80
2014,06,17,12,28,16.90
2014,06,17,12,29,17.00
2014,06,17,12,30,17.00
2014,06,17,12,31,17.10
2014,06,17,12,32,17.10
2014,06,17,12,33,17.10
2014,06,17,12,34,17.00
2014,06,17,12,35,17.00
2014,06,17,12,36,17.00
2014,06,17,12,37,17.00
2014,06,17,12,38,17.00
2014,06,17,12,39,17.00
2014,06,17,12,40,17.10
2014,06,17,12,41,17.20
2014,06,17,12,42,17.30
2014,06,17,12,43,17.30
2014,06,17,12,44,17.30
2014,06,17,12,45,17.30
2014,06,17,12,46,17.20
2014,06,17,12,47,17.00
2014,06,17,12,48,16.90
2014,06,17,12,49,16.80
2014,06,17,12,50,16.70
2014,06,17,12,51,16.60
2014,06,17,12,52,16.60
2014,06,17,12,53,16.60
2014,06,17,12,54,16.60
2014,06,17,12,55,16.60
2014,06,17,12,56,16.60
2014,06,17,12,57,16.60
2014,06,17,12,58,16.60
2014,06,17,12,59,16.70
2014,06,17,13,00,16.80
2014,06,17,13,01,16.90
2014,06,17,13,02,16.90
2014,06,17,13,03,16.80
2014,06,17,13,04,16.70
2014,06,17,13,05,16.70
2014,06,17,13,06,16.80
2014,06,17,13,07,16.80
2014,06,17,13,08,16.80
2014,06,17,13,09,16.90
2014,06,17,13,10,16.90
2014,06,17,13,11,16.90
2014,06,17,13,12,16.80
2014,06,17,13,13,16.80
2014,06,17,13,14,16.80
2014,06,17,13,15,16.90
2014,06,17,13,16,16.90
2014,06,17,13,17,16.90
2014,06,17,13,18,16.80
2014,06,17,13,19,16.70
2014,06,17,13,20,16.60
2014,06,17,13,21,16.60
2014,06,17,13,22,16.50
2014,06,17,13,23,16.40
2014,06,17,13,24,16.40
2014,06,17,13,25,16.30
2014,06,17,13,26,16.30
2014,06,17,13,27,16.30
2014,06,17,13,28,16.30
2014,06,17,13,29,16.30
2014,06,17,13,30,16.30
2014,06,17,13,31,16.30
2014,06,17,13,32,16.30
2014,06,17,13,33,16.20
2014,06,17,13,34,16.20
2014,06,17,13,35,16.10
2014,06,17,13,36,16.10
2014,06,17,13,37,16.10
2014,06,17,13,38,16.20
2014,06,17,13,39,16.20
2014,06,17,13,40,16.30
2014,06,17,13,41,16.30
2014,06,17,13,42,16.20
2014,06,17,13,43,16.20
2014,06,17,13,44,16.30
2014,06,17,13,45,16.40
2014,06,17,13,46,16.40
2014,06,17,13,47,16.50
2014,06,17,13,48,16.50
2014,06,17,13,49,16.50
2014,06,17,13,50,16.60
2014,06,17,13,51,16.70
2014,06,17,13,52,16.80
2014,06,17,13,53,16.90
2014,06,17,13,54,16.90
2014,06,17,13,55,16.90
2014,06,17,13,56,16.90
2014,06,17,13,57,16.90
2014,06,17,13,58,17.00
2014,06,17,13,59,17.00
2014,06,17,14,00,17.10
2014,06,17,14,01,17.10
2014,06,17,14,02,17.00
2014,06,17,14,03,17.00
2014,06,17,14,04,17.00
2014,06,17,14,05,17.00
2014,06,17,14,06,17.10
2014,06,17,14,07,17.10
2014,06,17,14,08,17.10
2014,06,17,14,09,17.00
2014,06,17,14,10,17.00
2014,06,17,14,11,17.00
2014,06,17,14,12,17.00
2014,06,17,14,13,17.10
2014,06,17,14,14,17.10
2014,06,17,14,15,17.20
2014,06,17,14,16,17.20
2014,06,17,14,17,17.20
2014,06,17,14,18,17.20
2014,06,17,14,19,17.30
2014,06,17,14,20,17.30
2014,06,17,14,21,17.30
2014,06,17,14,22,17.30
2014,06,17,14,23,17.30
2014,06,17,14,24,17.40
2014,06,17,14,25,17.40
2014,06,17,14,26,17.50
2014,06,17,14,27,17.50
2014,06,17,14,28,17.60
2014,06,17,14,29,17.70
2014,06,17,14,30,17.70
2014,06,17,14,31,17.80
2014,06,17,14,32,17.80
2014,06,17,14,33,17.80
2014,06,17,14,34,17.80
2014,06,17,14,35,17.90
2014,06,17,14,36,18.00
2014,06,17,14,37,18.10
2014,06,17,14,38,18.20
2014,06,17,14,39,18.20
2014,06,17,14,40,18.20
2014,06,17,14,41,18.20
2014,06,17,14,42,18.20
2014,06,17,14,43,18.10
2014,06,17,14,44,18.10
2014,06,17,14,45,18.00
2014,06,17,14,46,17.90
2014,06,17,14,47,17.90
2014,06,17,14,48,17.90
2014,06,17,14,49,17.90
2014,06,17,14,50,17.80
2014,06,17,14,51,17.80
2014,06,17,14,52,17.70
2014,06,17,14,53,17.60
2014,06,17,14,54,17.60
2014,06,17,14,55,17.50
2014,06,17,14,56,17.40
2014,06,17,14,57,17.50
2014,06,17,14,58,17.60
2014,06,17,14,59,17.60
2014,06,17,15,00,17.70
2014,06,17,15,01,17.70
2014,06,17,15,02,17.70
2014,06,17,15,03,17.70
2014,06,17,15,04,17.70
2014,06,17,15,05,17.50
2014,06,17,15,06,17.50
2014,06,17,15,07,17.60
2014,06,17,15,08,17.70
2014,06,17,15,09,17.70
2014,06,17,15,10,17.60
2014,06,17,15,11,17.60
2014,06,17,15,12,17.50
2014,06,17,15,13,17.50
2014,06,17,15,14,17.40
2014,06,17,15,15,17.40
2014,06,17,15,16,17.40
2014,06,17,15,17,17.40
2014,06,17,15,18,17.50
2014,06,17,15,19,17.60
2014,06,17,15,20,17.60
2014,06,17,15,21,17.60
2014,06,17,15,22,17.50
2014,06,17,15,23,17.50
2014,06,17,15,24,17.40
2014,06,17,15,25,17.40
2014,06,17,15,26,17.40
2014,06,17,15,27,17.50
2014,06,17,15,28,17.60
2014,06,17,15,29,17.70
2014,06,17,15,30,17.80
2014,06,17,15,31,17.80
2014,06,17,15,32,17.70
2014,06,17,15,33,17.70
2014,06,17,15,34,17.80
2014,06,17,15,35,17.80
2014,06,17,15,36,17.80
2014,06,17,15,37,17.80
2014,06,17,15,38,17.80
2014,06,17,15,39,17.80
2014,06,17,15,40,17.90
2014,06,17,15,41,17.90
2014,06,17,15,42,17.90
2014,06,17,15,43,17.90
2014,06,17,15,44,17.90
2014,06,17,15,45,17.90
2014,06,17,15,46,17.90
2014,06,17,15,47,17.80
2014,06,17,15,48,17.90
2014,06,17,15,49,17.90
2014,06,17,15,50,18.00
2014,06,17,15,51,18.00
2014,06,17,15,52,17.90
2014,06,17,15,53,17.90
2014,06,17,15,54,18.00
2014,06,17,15,55,18.10
2014,06,17,15,56,18.10
2014,06,17,15,57,18.20
2014,06,17,15,58,18.10
2014,06,17,15,59,18.20
2014,06,17,16,00,18.20
2014,06,17,16,01,18.30
2014,06,17,16,02,18.30
2014,06,17,16,03,18.40
2014,06,17,16,04,18.30
2014,06,17,16,05,18.30
2014,06,17,16,06,18.40
2014,06,17,16,07,18.40
2014,06,17,16,08,18.40
2014,06,17,16,09,18.40
2014,06,17,16,10,18.40
2014,06,17,16,11,18.40
2014,06,17,16,12,18.50
2014,06,17,16,13,18.40
2014,06,17,16,14,18.40
2014,06,17,16,15,18.50
2014,06,17,16,16,18.50
2014,06,17,16,17,18.60
2014,06,17,16,18,18.60
2014,06,17,16,19,18.60
2014,06,17,16,20,18.60
2014,06,17,16,21,18.50
2014,06,17,16,22,18.50
2014,06,17,16,23,18.60
2014,06,17,16,24,18.70
2014,06,17,16,25,18.70
2014,06,17,16,26,18.80
2014,06,17,16,27,18.80
2014,06,17,16,28,18.80
2014,06,17,16,29,18.90
2014,06,17,16,30,18.90
2014,06,17,16,31,18.90
2014,06,17,16,32,18.90
2014,06,17,16,33,18.90
2014,06,17,16,34,18.90
2014,06,17,16,35,18.90
2014,06,17,16,36,18.90
2014,06,17,16,37,18.90
2014,06,17,16,38,18.90
2014,06,17,16,39,18.90
2014,06,17,16,40,18.90
2014,06,17,16,41,18.80
2014,06,17,16,42,18.80
2014,06,17,16,43,18.80
2014,06,17,16,44,18.80
2014,06,17,16,45,18.80
2014,06,17,16,46,18.80
2014,06,17,16,47,18.90
2014,06,17,16,48,18.90
2014,06,17,16,49,19.00
2014,06,17,16,50,19.10
2014,06,17,16,51,19.10
2014,06,17,16,52,19.10
2014,06,17,16,53,19.10
2014,06,17,16,54,19.10
2014,06,17,16,55,19.10
2014,06,17,16,56,19.00
2014,06,17,16,57,19.00
2014,06,17,16,58,19.00
2014,06,17,16,59,19.00
2014,06,17,17,00,18.90
2014,06,17,17,01,18.90
2014,06,17,17,02,18.90
2014,06,17,17,03,18.80
2014,06,17,17,04,18.80
2014,06,17,17,05,18.80
2014,06,17,17,06,18.80
2014,06,17,17,07,18.80
2014,06,17,17,08,18.90
2014,06,17,17,09,18.90
2014,06,17,17,10,18.90
2014,06,17,17,11,19.00
2014,06,17,17,12,19.00
2014,06,17,17,13,19.00
2014,06,17,17,14,19.00
2014,06,17,17,15,19.00
2014,06,17,17,16,18.90
2014,06,17,17,17,18.90
2014,06,17,17,18,18.90
2014,06,17,17,19,18.80